Home   Weather   Mumbai   Past weeks

Flag for India Past Weather in Mumbai, Maharashtra, India — Yesterday and Last 2 Weeks

Now
82 °F

Clear.


Feels Like: 82 °F
Forecast: 72 / 87 °F
Wind: 7 mph from Northwest

Location: Mumbai / Santacruz

Current Time: Dec 10, 2016 at 6:27:48 pm

Latest Report: Dec 10, 2016 at 6:00 pm


Visibility: 2 mi

Pressure: 29.83 "Hg

Humidity: 45%

Dew Point: 59 °F

Location of MumbaiLocation

Past Weather in Mumbai — Graph

°F

Mumbai Temperature Yesterday

Maximum temperature yesterday: 90 °F (at 1:00 pm)
Minimum temperature yesterday: 70 °F (at 5:30 am)
Average temperature yesterday: 80 °F

High & Low Weather Summary for the Past Weeks

 TemperatureHumidityPressure
High97 °F (Dec 4, 1:30 pm)83% (Nov 29, 3:30 am)30.04 "Hg (Nov 29, 3:30 am)
Low68 °F (Dec 10, 5:30 am)18% (Nov 27, 2:30 pm)29.80 "Hg (Nov 25, 4:30 pm)
Average83 °F49%29.90 "Hg
* Reported Nov 25 4:30 pm — Dec 10 5:00 pm, Mumbai, Weather by CustomWeather, © 2016

Note: Actual official high and low records may vary slightly from our data, if they occured in-between our weather recording intervals... More about our weather records

Advertising

Mumbai Weather History for the Previous 24 Hours

Scroll right to see more
 ConditionsComfort  
Time TempWeatherWind HumidityBarometerVisibility
5:00 pm
Sat, Dec 10
84 °FClear.9 mph45%29.83 "Hg2 mi
4:30 pm86 °FClear.10 mph40%29.83 "Hg2 mi
4:00 pm88 °FClear.9 mph40%29.83 "Hg2 mi
3:30 pm88 °FClear.10 mph35%29.83 "Hg2 mi
3:00 pm88 °FClear.9 mph38%29.83 "Hg2 mi
2:30 pm88 °FClear.10 mph38%29.83 "Hg2 mi
2:00 pm86 °FClear.10 mph40%29.86 "Hg2 mi
1:30 pm86 °FClear.8 mph40%29.86 "Hg2 mi
1:00 pm86 °FClear.10 mph38%29.86 "Hg2 mi
12:30 pm86 °FClear.8 mph35%29.89 "Hg2 mi
12:00 pm84 °FClear.8 mph40%29.92 "Hg2 mi
11:30 am88 °FClear.No wind31%29.92 "Hg2 mi
11:00 am84 °FClear.3 mph33%29.95 "Hg2 mi
10:30 am82 °FClear.5 mph37%29.95 "Hg1 mi
10:00 am82 °FClear.7 mph40%29.95 "Hg1 mi
8:30 am72 °FHaze.2 mph65%29.92 "Hg1 mi
7:00 am68 °FHaze.3 mph69%29.89 "Hg1 mi
6:00 am68 °FHaze.No wind73%29.89 "Hg1 mi
5:30 am68 °FHaze.No wind73%29.86 "Hg1 mi
4:00 am72 °FHaze.No wind73%29.86 "Hg1 mi
3:00 am73 °FHaze.No wind69%29.86 "Hg1 mi
2:30 am73 °FHaze.No wind69%29.86 "Hg1 mi
12:30 am77 °FHaze.No wind61%29.89 "Hg1 mi
12:00 am77 °FHaze.No wind65%29.89 "Hg1 mi
11:30 pm
Fri, Dec 9
79 °FHaze.No wind61%29.92 "Hg1 mi
11:00 pm79 °FClear.6 mph61%29.92 "Hg1 mi
10:30 pm81 °FClear.5 mph54%29.92 "Hg1 mi
10:00 pm79 °FClear.6 mph58%29.92 "Hg1 mi
9:30 pm81 °FClear.3 mph51%29.92 "Hg1 mi
9:00 pm81 °FClear.5 mph58%29.92 "Hg1 mi
8:30 pm82 °FPassing clouds.3 mph55%29.89 "Hg1 mi
8:00 pm81 °FPassing clouds.6 mph54%29.89 "Hg1 mi
7:30 pm82 °FPassing clouds.3 mph48%29.89 "Hg1 mi
7:00 pm82 °FPassing clouds.6 mph51%29.86 "Hg1 mi
Weather by CustomWeather, © 2016

See weather overviewHow to use our weather pages